Home   Weather   Porto Alegre   Past weeks
Flag for Brazil

Past Weather in Porto Alegre, Rio Grande do Sul, Brazil — Yesterday and Last 2 Weeks

Now
68 °F

Sunny.


Feels Like: 68 °F
Forecast: 69 / 53 °F
Wind: No wind

Location: Porto Alegre Aero-Porto

Current Time: Jul 19, 2019 at 4:32:07 pm

Latest Report: Jul 19, 2019 at 4:00 pm


Visibility: 10 mi

Pressure: 30.09 "Hg

Humidity: 69%

Dew Point: 57 °F

Location of Porto AlegreLocation

Past Weather in Porto Alegre — Graph

°F

Porto Alegre Temperature Yesterday

Maximum temperature yesterday: 72 °F (at 3:00 pm)
Minimum temperature yesterday: 48 °F (at 5:00 am)
Average temperature yesterday: 58 °F

High & Low Weather Summary for the Past Weeks

 TemperatureHumidityPressure
High82 °F (Jul 12, 2:00 pm)100% (Jul 7, 8:00 am)30.45 "Hg (Jul 7, 8:00 am)
Low36 °F (Jul 7, 3:00 am)37% (Jul 8, 5:00 pm)29.86 "Hg (Jul 12, 1:00 pm)
Average53 °F83%30.17 "Hg
* Reported Jul 4 3:00 pm — Jul 19 3:00 pm, Porto Alegre. Weather by CustomWeather, © 2019

Note: Actual official high and low records may vary slightly from our data, if they occured in-between our weather recording intervals... More about our weather records

Advertising

Porto Alegre Weather History for the Previous 24 Hours

Scroll right to see more
 ConditionsComfort  
Time TempWeatherWind HumidityBarometerVisibility
3:00 pm
Fri, Jul 19
68 °FBroken clouds.6 mph69%30.12 "HgN/A
2:00 pm66 °FPartly sunny.5 mph73%30.12 "HgN/A
1:00 pm66 °FMore clouds than sun.7 mph78%30.15 "HgN/A
12:00 pm68 °FPartly sunny.7 mph69%30.18 "HgN/A
11:00 am70 °FSunny.2 mph60%30.18 "Hg10 mi
10:00 am63 °FSunny.8 mph83%30.18 "Hg10 mi
9:00 am59 °FClear.6 mph94%30.18 "Hg5 mi
8:00 am55 °FClear.1 mph94%30.18 "Hg5 mi
7:00 am55 °FClear.No wind94%30.15 "Hg6 mi
6:00 am55 °FFog.5 mph100%30.15 "Hg3 mi
5:00 am54 °FClear.6 mph100%30.15 "Hg4 mi
4:00 am54 °FClear.5 mph94%30.18 "Hg4 mi
3:00 am54 °FClear.2 mph100%30.18 "Hg10 mi
2:00 am55 °FClear.3 mph94%30.21 "Hg10 mi
1:00 am55 °FClear.3 mph100%30.21 "Hg5 mi
12:00 am55 °FFog.5 mph100%30.21 "Hg3 mi
11:00 pm
Thu, Jul 18
55 °FClear.3 mph100%30.21 "Hg4 mi
10:00 pm57 °FClear.5 mph100%30.21 "Hg4 mi
9:00 pm59 °FClear.2 mph94%30.21 "Hg10 mi
8:00 pm61 °FClear.3 mph94%30.18 "Hg10 mi
7:00 pm63 °FClear.5 mph83%30.18 "Hg10 mi
6:00 pm64 °FClear.6 mph73%30.18 "Hg10 mi
5:00 pm68 °FSunny.7 mph64%30.18 "Hg10 mi
4:00 pm72 °FPassing clouds.3 mph53%30.18 "HgN/A
Weather by CustomWeather, © 2019

See weather overview